Terminal Aerodrome Forecast
Issued by NWS Mt. Holly, NJ

Home | Current Version | Previous Version | Text Only | Print | Product List | Glossary On
Versions: 1 2 3 4 5 6 7 8 9 10 11 12 13 14 15
000
FTUS41 KPHI 192300
TAFACY
TAF
KACY 192320Z 2000/2024 31008KT P6SM SCT250
     FM200800 32003KT P6SM SCT030 BKN200
     FM201300 33007KT P6SM SCT035 OVC180=

USA.gov is the U.S. government's official web portal to all federal, state and local government web resources and services.